Weather History for Edinburg, TX

Change the Weather History Date:

Friday, March 8, 2013

  Actual Average (KMFE) Record (KMFE)
Temperature  
Mean Temperature 73 °F 69 °F  
Max Temperature 82 °F 80 °F 98 °F (1991)
Min Temperature 64 °F 58 °F 35 °F (1926)
Degree Days  
Heating Degree Days 0 2  
Month to date heating degree days 16  
Since 1 July heating degree days 549  
Cooling Degree Days 8 6  
Month to date cooling degree days 43  
Year to date cooling degree days 202  
Growing Degree Days 23 (Base 50)    
Moisture  
Dew Point 63 °F    
Average Humidity 71    
Maximum Humidity 91    
Minimum Humidity 45    
Precipitation  
Precipitation 0.00 in 0.03 in 0.16 in (1966)
Month to date precipitation 0.30  
Year to date precipitation 2.46  
Sea Level Pressure  
Sea Level Pressure 30.03 in    
Wind  
Wind Speed 12 mph (SE)    
Max Wind Speed 24 mph    
Max Gust Speed 32 mph    
Visibility 6 miles    
Events      
T = Trace of Precipitation, MM = Missing Value Source: NWS Daily Summary

Daily Weather History Graph

Daily Weather History Graph

Search for Another Location

Airport:

Trip Planner

Search our weather history database for the weather conditions in past years. The results will help you decide how hot, cold, wet, or windy it might be!

Date:

Astronomy

Mar. 08, 2013 Rise Set
Actual Time 6:48 AM CST 6:37 PM CST
Civil Twilight 6:25 AM CST 7:00 PM CST
Nautical Twilight 5:58 AM CST 7:27 PM CST
Astronomical Twilight 5:32 AM CST 7:54 PM CST
Moon 4:18 AM CST (3/8) 3:47 PM CST (3/8)
Length of Visible Light 12h 35m
Length of Day
11h 49m
Waning Crescent, 11% of the Moon is Illuminated
Mar 8
Waning Crescent
Mar 11
New
Mar 19
First Quarter
Mar 27
Full
Apr 2
Last Quarter

Hourly Weather History & Observations

Time (CST) Temp. Heat Index Dew Point Humidity Pressure Visibility Wind Dir Wind Speed Gust Speed Precip Events Conditions
12:15 AM 69.8 °F - 63.5 °F 80% 30.10 in 7.0 mi SE 9.2 mph - N/A   Mostly Cloudy
12:35 AM 69.8 °F - 63.5 °F 80% 30.10 in 7.0 mi ESE 10.4 mph - N/A   Mostly Cloudy
12:55 AM 69.8 °F - 63.5 °F 80% 30.09 in 7.0 mi SE 11.5 mph - N/A   Mostly Cloudy
1:15 AM 69.4 °F - 63.5 °F 81% 30.08 in 7.0 mi SE 10.4 mph - N/A   Mostly Cloudy
1:55 AM 69.8 °F - 64.2 °F 82% 30.07 in 7.0 mi SE 10.4 mph - N/A   Scattered Clouds
2:15 AM 69.4 °F - 64.4 °F 84% 30.07 in 5.0 mi SE 9.2 mph - N/A   Haze
2:35 AM 69.1 °F - 64.0 °F 84% 30.06 in 5.0 mi SE 6.9 mph - N/A   Haze
2:55 AM 68.4 °F - 63.9 °F 85% 30.05 in 5.0 mi SE 8.1 mph - N/A   Haze
3:15 AM 68.2 °F - 63.9 °F 86% 30.05 in 5.0 mi SE 5.8 mph - N/A   Scattered Clouds
3:55 AM 67.6 °F - 64.0 °F 88% 30.03 in 5.0 mi ESE 6.9 mph - N/A   Scattered Clouds
4:15 AM 67.3 °F - 63.7 °F 88% 30.03 in 5.0 mi SE 5.8 mph - N/A   Scattered Clouds
4:35 AM 66.7 °F - 63.5 °F 89% 30.03 in 5.0 mi SE 5.8 mph - N/A   Clear
4:55 AM 66.6 °F - 63.5 °F 90% 30.04 in 5.0 mi SSE 5.8 mph - N/A   Clear
5:15 AM 66.4 °F - 63.3 °F 90% 30.05 in 5.0 mi SE 3.5 mph - N/A   Scattered Clouds
5:55 AM 65.7 °F - 62.6 °F 90% 30.05 in 5.0 mi SE 3.5 mph - N/A   Clear
6:35 AM 64.8 °F - 62.1 °F 91% 30.05 in 4.0 mi ESE 3.5 mph - N/A   Clear
6:55 AM 65.3 °F - 62.6 °F 91% 30.05 in 5.0 mi ESE 3.5 mph - N/A   Clear
7:15 AM 66.2 °F - 63.5 °F 91% 30.05 in 4.0 mi ESE 6.9 mph - N/A   Clear
7:35 AM 66.7 °F - 63.9 °F 90% 30.06 in 4.0 mi ESE 4.6 mph - N/A   Clear
7:55 AM 67.3 °F - 64.4 °F 90% 30.06 in 4.0 mi ESE 6.9 mph - N/A   Clear
8:15 AM 68.0 °F - 64.8 °F 89% 30.06 in 3.0 mi SE 6.9 mph - N/A   Clear
8:35 AM 69.1 °F - 64.8 °F 86% 30.07 in 4.0 mi SE 8.1 mph - N/A   Scattered Clouds
8:55 AM 70.7 °F - 64.8 °F 81% 30.06 in 5.0 mi SE 12.7 mph - N/A   Haze
9:15 AM 71.8 °F - 65.1 °F 79% 30.06 in 4.0 mi SE 12.7 mph - N/A   Haze
10:15 AM 75.4 °F - 64.2 °F 68% 30.08 in 5.0 mi SE 16.1 mph 20.7 mph N/A   Haze
10:35 AM 76.5 °F - 63.9 °F 65% 30.08 in 5.0 mi SSE 15.0 mph 23.0 mph N/A   Haze
10:55 AM 78.4 °F - 63.5 °F 60% 30.07 in 5.0 mi SSE 18.4 mph 24.2 mph N/A   Haze
11:15 AM 79.7 °F - 61.5 °F 54% 30.06 in 5.0 mi SSE 20.7 mph 28.8 mph N/A   Haze
11:35 AM 81.1 °F 82.0 °F 61.2 °F 51% 30.05 in 5.0 mi SSE 23.0 mph 27.6 mph N/A   Haze
11:55 AM 79.0 °F - 61.5 °F 55% 30.05 in 7.0 mi SSE 20.7 mph 28.8 mph N/A   Mostly Cloudy
12:15 PM 78.8 °F - 61.7 °F 56% 30.04 in 7.0 mi SSE 21.9 mph 28.8 mph N/A   Overcast
12:35 PM 79.0 °F - 61.2 °F 54% 30.03 in 7.0 mi SSE 19.6 mph 24.2 mph N/A   Overcast
12:55 PM 80.2 °F 81.1 °F 60.8 °F 51% 30.00 in 5.0 mi SSE 19.6 mph 27.6 mph N/A   Haze
1:15 PM 81.9 °F 82.3 °F 60.4 °F 48% 29.99 in 7.0 mi SSE 18.4 mph 25.3 mph N/A   Overcast
1:35 PM 81.3 °F 81.7 °F 59.4 °F 47% 29.98 in 7.0 mi SSE 23.0 mph 29.9 mph N/A   Overcast
1:55 PM 82.0 °F 82.1 °F 59.0 °F 45% 29.98 in 5.0 mi SSE 19.6 mph 28.8 mph N/A   Haze
2:15 PM 82.4 °F 82.5 °F 59.4 °F 45% 29.98 in 5.0 mi SSE 19.6 mph 27.6 mph N/A   Haze
2:35 PM 81.7 °F 82.0 °F 59.4 °F 47% 29.97 in 0.8 mi SSE 20.7 mph 32.2 mph N/A   Haze
2:55 PM 81.5 °F 82.0 °F 59.9 °F 48% 29.97 in 5.0 mi SSE 21.9 mph 29.9 mph N/A   Haze
3:15 PM 80.6 °F 81.4 °F 60.4 °F 50% 29.96 in 7.0 mi SSE 18.4 mph 29.9 mph N/A   Overcast
3:35 PM 81.1 °F 81.6 °F 59.9 °F 48% 29.96 in 5.0 mi SE 24.2 mph - N/A   Haze
3:55 PM 80.1 °F 81.0 °F 60.4 °F 51% 29.96 in 7.0 mi SE 24.2 mph - N/A   Mostly Cloudy
4:15 PM 79.3 °F - 61.9 °F 55% 29.97 in 5.0 mi SE 17.3 mph 24.2 mph N/A   Haze
4:35 PM 78.8 °F - 62.2 °F 57% 29.98 in 5.0 mi SE 18.4 mph - N/A   Haze
4:55 PM 77.9 °F - 63.0 °F 60% 29.98 in 5.0 mi ESE 17.3 mph - N/A   Haze
5:15 PM 77.5 °F - 62.6 °F 60% 29.99 in 5.0 mi ESE 17.3 mph - N/A   Haze
5:35 PM 77.0 °F - 62.8 °F 61% 30.00 in 5.0 mi ESE 17.3 mph - N/A   Haze
5:55 PM 76.5 °F - 62.8 °F 62% 30.00 in 5.0 mi ESE 15.0 mph - N/A   Haze
6:15 PM 76.1 °F - 56.7 °F 51% 29.99 in 5.0 mi SE 16.1 mph 23.0 mph N/A   Haze
6:35 PM 75.2 °F - 63.5 °F 67% 30.01 in 7.0 mi ESE 17.3 mph - N/A   Overcast
6:55 PM 74.8 °F - 63.5 °F 68% 30.02 in 7.0 mi ESE 15.0 mph 19.6 mph N/A   Overcast
7:15 PM 73.9 °F - 63.5 °F 70% 30.01 in 7.0 mi ESE 18.4 mph - N/A   Overcast
7:35 PM 73.6 °F - 63.7 °F 71% 30.01 in 7.0 mi ESE 17.3 mph - N/A   Overcast
7:55 PM 73.4 °F - 63.7 °F 71% 30.02 in 7.0 mi ESE 13.8 mph - N/A   Overcast
8:15 PM 73.0 °F - 63.9 °F 73% 30.03 in 7.0 mi SE 13.8 mph - N/A   Overcast
8:35 PM 73.4 °F - 64.4 °F 73% 30.03 in 7.0 mi SE 16.1 mph - N/A   Overcast
8:55 PM 73.0 °F - 64.4 °F 74% 30.04 in 7.0 mi SE 13.8 mph 24.2 mph N/A   Overcast
9:15 PM 72.7 °F - 64.4 °F 75% 30.03 in 7.0 mi SE 15.0 mph - N/A   Overcast
9:35 PM 72.7 °F - 64.4 °F 75% 30.04 in 7.0 mi SE 15.0 mph - N/A   Overcast
9:55 PM 72.7 °F - 64.4 °F 75% 30.04 in 7.0 mi SE 13.8 mph 21.9 mph N/A   Overcast
10:15 PM 72.7 °F - 64.6 °F 76% 30.03 in 7.0 mi SE 15.0 mph 21.9 mph N/A   Overcast
10:55 PM 72.7 °F - 64.8 °F 76% 30.02 in 7.0 mi SE 15.0 mph - N/A   Overcast
11:15 PM 72.7 °F - 64.8 °F 76% 30.01 in 7.0 mi SE 17.3 mph 20.7 mph N/A   Scattered Clouds
11:35 PM 72.5 °F - 64.8 °F 77% 30.00 in 7.0 mi SE 15.0 mph - N/A   Scattered Clouds
11:55 PM 72.7 °F - 64.9 °F 77% 30.01 in 7.0 mi SSE 15.0 mph 20.7 mph N/A   Scattered Clouds